Погода Сангары

Погода Сангары : погода сейчас, прогноз погоды и архив. Всё, что Вы хотите узнать о погоде Сангары!

Хотите узнать прогноз погоды Сангары? Тогда Вам сюда: Погода Сангары

Поиск расширенной информации на нашем сайте:

Другие новости

Новости СМИ2

Главная страница сайта

Новости сайта

03.07.2017

Напоминаем, что на нашем специализированном сайте Метеоцентр.Азия вы можете получить высокодетализированные автоматические прогнозы погоды по пунктам России, СНГ и мира в авиационном формате (включающие направление и скорость ветра, видимость, явления погоды, количество и форму облачности, нижнюю и верхнюю границу облачности).

Рекомендуем: лесные жители белфакс

Погода Сангары - сегодня

Время (UTC), дата Ветер
(°,м/с) 
Видим.   Явления Облачность Т
(°С)
Тd
(°С)
f(%) Тe
(°С)
Pmin
(гПа)
dP
(гПа)
Po
(мм)
O2
(г/м3)
Тmin Tmax R s Состояние
почвы
09 22.09.17 130 (ЮВ) 20000 м    1/0 верхняя 
[Ci fib]
+5.5 -0.3 66 +5  1015.4  753  297           
12 22.09.17 040 (СВ) 10 км    ясно 
-0.1 -1.6 90 -1  1016  0.2  753  304    +7.1       
15 22.09.17 020 (С) 10 км    ясно 
-1.5 -2.7 92 -2  1015.7  -0.3  753  305           
18 22.09.17 050 (СВ) 10 км    ясно 
-2.5 -3.1 96 -2  1015.4  -0.3  752  306           
21 22.09.17 050 (СВ) 10 км    ясно 
-3.5 -4.2 95 -5  1014.2  -1.2  752  307           
00 23.09.17 090 (В) 20000 м    3/0 верхняя 
[Ci fib]
+3.8 -5.4 51 +5  1012.8  -1  751  299  -3.5        влажная 
03 23.09.17 120 (ЮВ) 20000 м    4/0 верхняя 
[Ci fib]
+8.5 -4.4 40 +7  1012.2  -0.5  750  294           
06 23.09.17 100 (В) 20000 м    4/0 верхняя 
[Ci fib]
+10.5 -5.1 33 +9  1009.7  -2.4  749  291           
09 23.09.17 100 (В) 20000 м    6/0 средняя, верхняя 
[Ac trans|Ci fib]
+10 -5.1 34 +11  1008.1  -1.5  747  291           
12 23.09.17 100 (В) 10 км    8/0 средняя, верхняя 
[Ac trans|Ci fib]
+7.6 -2.7 48 +8  1008.7  0.5  748  293    +10.9       
15 23.09.17 090 (В) 10 км    8/0 верхняя 
[Ci fib]
+6.8 -3.2 49 +5  1008.8  748  294           
18 23.09.17 080 (В) 10 км    5/0 верхняя 
[Ci fib]
+3 -3.5 62 +2  1009  748  298           
21 23.09.17 100 (В) 20000 м    6/4 1000 м средняя 
[Sc|Ac trans]
+7.4 -2.3 50 +7  1008  -0.8  747  293           
00 24.09.17 120 (ЮВ) 20000 м    8/4 1000 м средняя 
[Cu hum|Ac trans]
+8.2 +0.4 58 +8  1007.8  -0.1  747  292  +2.6        влажная 
03 24.09.17 120 (ЮВ) 20000 м    6/6 900 м 
[Sc]
+13.6 +0 39 +14  1006.7  -0.9  746  286           
06 24.09.17 100 (В) 20000 м    ясно 
+16 -1.3 31 +16  1005.6  -1  746  284           
09 24.09.17 100 (В) 20000 м    ясно 
+14.8 -0.1 36 +15  1005.7  746  285           
12 24.09.17 060 (СВ) 10 км    ясно 
+4.6 -0.5 69 +4  1006.9  0.8  746  296    +16.4       
15 24.09.17 090 (В) 10 км    9/0 средняя, верхняя 
[Ac trans|Ci fib]
+9 -0.7 51 +9  1006.4  -0.3  746  291           
18 24.09.17 090 (В) 10 км    4/0 средняя, верхняя 
[Ac trans|Ci fib]
+10.5 -0.8 45 +10  1006.1  -0.2  746  290           
21 24.09.17 090 (В) 10 км    9/5 1000 м средняя 
[Sc|Ac lent]
+10.2 -0.9 46 +9  1006.4  0.3  746  290           
00 25.09.17 090 (В) 20000 м    9/3 1000 м средняя 
[Sc|Ac lent]
+10.3 +0.2 49 +9  1006.6  0.2  746  290  +3.5        влажная 
03 25.09.17 110 (В) 5{12}  10 км  слаб. ливневой дождь  10/10 400 м кучево-дожд. 
[Cb calv]
+7.6 +5.6 87 +6  1007  0.3  747  292           
06 25.09.17 120 (ЮВ) 6{10}  20000 м  {ливн. осадки}  10/10 720 м 
[Sc]
+6.7 +3.9 82 +5  1007.8  0.7  747  293           
09 25.09.17 130 (ЮВ) 5{12}  20000 м  в посл. час ливневой дождь  10/10 420 м 
[St]
+4.8 +2.1 83 +3  1010.2  2.3  749  296           
Время (UTC), дата Ветер
(°,м/с) 
Видим.   Явления Облачность Т
(°С)
Тd
(°С)
f(%) Тe
(°С)
Pmin
(гПа)
dP
(гПа)
Po
(мм)
O2
(г/м3)
Тmin Tmax R s Состояние
почвы

Для получения пояснительной информации подведите курсор к названию столбца.

ПОГОДА Сангары - архив

Всё, что Вы хотите узнать о погоде Сангары - удобно и подробно!

Выберите нужную дату (начиная с 1 января 2015* года) и нажмите кнопку "Найти".
Будут отображены архивные сводки погоды по пункту Сангары, начиная с указанной даты.


Отображать данные в формате CSV (для использования в таблицах Excel)


Внимание! Наш архив погоды предназначен исключительно для личного некоммерческого использования в познавательных целях. Если Вам необходимы официальные справки о состоянии погоды (для производственных, юридических, коммерческих и т.п. целей), обращайтесь в органы Росгидромета.

*Примечание: данная дата относится к архиву по метеостанциям СССР (Россия, СНГ, Балтия).
Архив по метеостанциям Зарубежной Европы и Азии (кроме Китая) хранится 10 дней, по другим регионам земного шара (Китай, Африка, Америка, Австралия, Океания) - 1 день.

Сангары - район местоположения метеостанции


Название, широта, долгота, высота метеостанции:
Сангары 64°ш. 127.5°д. 96 м над ур. моря [Российская Федерация]

Дополнительная информация

В oтличие oт бoльшинства пoгoдных сайтoв мы публикуем пoдрoбную метеoинфoрмацию в детальнoм прoфессиoнальнoм фoрмате.

Характеристики температуры и влажнoсти вoздуха измеряются на высoте 2 м в тени вдали oт зданий и деревьев.
Скoрoсть ветра измеряется на высoте 10 м (на урoвне рoста челoвека скoрoсть ветра ниже в 1.5-2 раза). Если метеoстанция нахoдится в гoрoде или в лесу, тo скoрoсть ветра занижена на 2-4 м/с пo сравнению с oткрытым местoм. Скoрoсть ветра над акватoриями крупных рек и oзёр, а также на вершинах хoлмoв на 2-5 м/с выше, чем в oбычных услoвиях.
Атмoсфернoе давление в разных тoчках местнoсти мoжет значительнo oтличаться oт давления на метеoстанции, в зависимoсти oт услoвий рельефа (при пoдъёме на 10 м давление пoнижается примернo на 1 мм рт.ст.).